Year,Month,Day,Hour,Minute,Value (Times are PST for temperature in C)
2016,05,05,00,00,11.20
2016,05,05,00,01,11.20
2016,05,05,00,02,11.20
2016,05,05,00,03,11.20
2016,05,05,00,04,11.20
2016,05,05,00,05,11.20
2016,05,05,00,06,11.20
2016,05,05,00,07,11.20
2016,05,05,00,08,11.20
2016,05,05,00,09,11.20
2016,05,05,00,10,11.20
2016,05,05,00,11,11.20
2016,05,05,00,12,11.20
2016,05,05,00,13,11.20
2016,05,05,00,14,11.20
2016,05,05,00,15,11.10
2016,05,05,00,16,11.10
2016,05,05,00,17,11.20
2016,05,05,00,18,11.20
2016,05,05,00,19,11.20
2016,05,05,00,20,11.20
2016,05,05,00,21,11.20
2016,05,05,00,22,11.20
2016,05,05,00,23,11.20
2016,05,05,00,24,11.20
2016,05,05,00,25,11.20
2016,05,05,00,26,11.20
2016,05,05,00,27,11.20
2016,05,05,00,28,11.20
2016,05,05,00,29,11.20
2016,05,05,00,30,11.20
2016,05,05,00,31,11.20
2016,05,05,00,32,11.20
2016,05,05,00,33,11.20
2016,05,05,00,34,11.20
2016,05,05,00,35,11.20
2016,05,05,00,36,11.20
2016,05,05,00,37,11.20
2016,05,05,00,38,11.10
2016,05,05,00,39,11.10
2016,05,05,00,40,11.10
2016,05,05,00,41,11.10
2016,05,05,00,42,11.10
2016,05,05,00,43,11.10
2016,05,05,00,44,11.00
2016,05,05,00,45,11.00
2016,05,05,00,46,11.00
2016,05,05,00,47,11.00
2016,05,05,00,48,11.00
2016,05,05,00,49,11.00
2016,05,05,00,50,11.00
2016,05,05,00,51,11.00
2016,05,05,00,52,11.00
2016,05,05,00,53,11.10
2016,05,05,00,54,11.10
2016,05,05,00,55,11.10
2016,05,05,00,56,11.10
2016,05,05,00,57,11.10
2016,05,05,00,58,11.10
2016,05,05,00,59,11.20
2016,05,05,01,00,11.20
2016,05,05,01,01,11.20
2016,05,05,01,02,11.20
2016,05,05,01,03,11.20
2016,05,05,01,04,11.10
2016,05,05,01,05,11.10
2016,05,05,01,06,11.10
2016,05,05,01,07,11.10
2016,05,05,01,08,11.10
2016,05,05,01,09,11.10
2016,05,05,01,10,11.10
2016,05,05,01,11,11.10
2016,05,05,01,12,11.00
2016,05,05,01,13,11.00
2016,05,05,01,14,11.00
2016,05,05,01,15,10.90
2016,05,05,01,16,10.90
2016,05,05,01,17,10.90
2016,05,05,01,18,10.80
2016,05,05,01,19,10.80
2016,05,05,01,20,10.80
2016,05,05,01,21,10.80
2016,05,05,01,22,10.70
2016,05,05,01,23,10.70
2016,05,05,01,24,10.70
2016,05,05,01,25,10.70
2016,05,05,01,26,10.60
2016,05,05,01,27,10.60
2016,05,05,01,28,10.60
2016,05,05,01,29,10.60
2016,05,05,01,30,10.60
2016,05,05,01,31,10.50
2016,05,05,01,32,10.50
2016,05,05,01,33,10.50
2016,05,05,01,34,10.40
2016,05,05,01,35,10.40
2016,05,05,01,36,10.40
2016,05,05,01,37,10.30
2016,05,05,01,38,10.30
2016,05,05,01,39,10.30
2016,05,05,01,40,10.30
2016,05,05,01,41,10.30
2016,05,05,01,42,10.20
2016,05,05,01,43,10.20
2016,05,05,01,44,10.20
2016,05,05,01,45,10.20
2016,05,05,01,46,10.10
2016,05,05,01,47,10.10
2016,05,05,01,48,10.10
2016,05,05,01,49,10.00
2016,05,05,01,50,10.00
2016,05,05,01,51,10.00
2016,05,05,01,52,9.90
2016,05,05,01,53,9.90
2016,05,05,01,54,9.90
2016,05,05,01,55,9.90
2016,05,05,01,56,9.90
2016,05,05,01,57,9.90
2016,05,05,01,58,9.90
2016,05,05,01,59,9.90
2016,05,05,02,00,9.90
2016,05,05,02,01,9.80
2016,05,05,02,02,9.80
2016,05,05,02,03,9.80
2016,05,05,02,04,9.80
2016,05,05,02,05,9.80
2016,05,05,02,06,9.70
2016,05,05,02,07,9.70
2016,05,05,02,08,9.70
2016,05,05,02,09,9.70
2016,05,05,02,10,9.60
2016,05,05,02,11,9.60
2016,05,05,02,12,9.60
2016,05,05,02,13,9.60
2016,05,05,02,14,9.50
2016,05,05,02,15,9.50
2016,05,05,02,16,9.50
2016,05,05,02,17,9.40
2016,05,05,02,18,9.40
2016,05,05,02,19,9.40
2016,05,05,02,20,9.40
2016,05,05,02,21,9.40
2016,05,05,02,22,9.30
2016,05,05,02,23,9.30
2016,05,05,02,24,9.30
2016,05,05,02,25,9.30
2016,05,05,02,26,9.20
2016,05,05,02,27,9.20
2016,05,05,02,28,9.20
2016,05,05,02,29,9.10
2016,05,05,02,30,9.10
2016,05,05,02,31,9.10
2016,05,05,02,32,9.00
2016,05,05,02,33,9.00
2016,05,05,02,34,8.90
2016,05,05,02,35,8.90
2016,05,05,02,36,8.90
2016,05,05,02,37,8.90
2016,05,05,02,38,8.80
2016,05,05,02,39,8.80
2016,05,05,02,40,8.80
2016,05,05,02,41,8.80
2016,05,05,02,42,8.80
2016,05,05,02,43,8.80
2016,05,05,02,44,8.80
2016,05,05,02,45,8.80
2016,05,05,02,46,8.80
2016,05,05,02,47,8.80
2016,05,05,02,48,8.80
2016,05,05,02,49,8.80
2016,05,05,02,50,8.80
2016,05,05,02,51,8.70
2016,05,05,02,52,8.70
2016,05,05,02,53,8.70
2016,05,05,02,54,8.80
2016,05,05,02,55,8.80
2016,05,05,02,56,8.80
2016,05,05,02,57,8.80
2016,05,05,02,58,8.80
2016,05,05,02,59,8.80
2016,05,05,03,00,8.70
2016,05,05,03,01,8.70
2016,05,05,03,02,8.70
2016,05,05,03,03,8.70
2016,05,05,03,04,8.70
2016,05,05,03,05,8.60
2016,05,05,03,06,8.60
2016,05,05,03,07,8.60
2016,05,05,03,08,8.50
2016,05,05,03,09,8.50
2016,05,05,03,10,8.40
2016,05,05,03,11,8.40
2016,05,05,03,12,8.30
2016,05,05,03,13,8.30
2016,05,05,03,14,8.30
2016,05,05,03,15,8.30
2016,05,05,03,16,8.30
2016,05,05,03,17,8.20
2016,05,05,03,18,8.20
2016,05,05,03,19,8.20
2016,05,05,03,20,8.20
2016,05,05,03,21,8.10
2016,05,05,03,22,8.10
2016,05,05,03,23,8.10
2016,05,05,03,24,8.10
2016,05,05,03,25,8.10
2016,05,05,03,26,8.10
2016,05,05,03,27,8.00
2016,05,05,03,28,8.00
2016,05,05,03,29,8.00
2016,05,05,03,30,7.90
2016,05,05,03,31,7.90
2016,05,05,03,32,7.90
2016,05,05,03,33,7.90
2016,05,05,03,34,7.80
2016,05,05,03,35,7.80
2016,05,05,03,36,7.80
2016,05,05,03,37,7.80
2016,05,05,03,38,7.80
2016,05,05,03,39,7.80
2016,05,05,03,40,7.80
2016,05,05,03,41,7.80
2016,05,05,03,42,7.80
2016,05,05,03,43,7.80
2016,05,05,03,44,7.80
2016,05,05,03,45,7.90
2016,05,05,03,46,7.80
2016,05,05,03,47,7.80
2016,05,05,03,48,7.80
2016,05,05,03,49,7.80
2016,05,05,03,50,7.80
2016,05,05,03,51,7.80
2016,05,05,03,52,7.80
2016,05,05,03,53,7.80
2016,05,05,03,54,7.70
2016,05,05,03,55,7.70
2016,05,05,03,56,7.70
2016,05,05,03,57,7.60
2016,05,05,03,58,7.60
2016,05,05,03,59,7.60
2016,05,05,04,00,7.60
2016,05,05,04,01,7.60
2016,05,05,04,02,7.60
2016,05,05,04,03,7.50
2016,05,05,04,04,7.50
2016,05,05,04,05,7.50
2016,05,05,04,06,7.50
2016,05,05,04,07,7.50
2016,05,05,04,08,7.40
2016,05,05,04,09,7.40
2016,05,05,04,10,7.40
2016,05,05,04,11,7.40
2016,05,05,04,12,7.40
2016,05,05,04,13,7.40
2016,05,05,04,14,7.40
2016,05,05,04,15,7.40
2016,05,05,04,16,7.30
2016,05,05,04,17,7.30
2016,05,05,04,18,7.30
2016,05,05,04,19,7.30
2016,05,05,04,20,7.30
2016,05,05,04,21,7.30
2016,05,05,04,22,7.30
2016,05,05,04,23,7.20
2016,05,05,04,24,7.20
2016,05,05,04,25,7.20
2016,05,05,04,26,7.20
2016,05,05,04,27,7.20
2016,05,05,04,28,7.20
2016,05,05,04,29,7.20
2016,05,05,04,30,7.20
2016,05,05,04,31,7.20
2016,05,05,04,32,7.10
2016,05,05,04,33,7.10
2016,05,05,04,34,7.10
2016,05,05,04,35,7.10
2016,05,05,04,36,7.10
2016,05,05,04,37,7.10
2016,05,05,04,38,7.10
2016,05,05,04,39,7.00
2016,05,05,04,40,7.00
2016,05,05,04,41,7.00
2016,05,05,04,42,6.90
2016,05,05,04,43,6.90
2016,05,05,04,44,6.90
2016,05,05,04,45,6.90
2016,05,05,04,46,6.90
2016,05,05,04,47,6.90
2016,05,05,04,48,6.90
2016,05,05,04,49,6.90
2016,05,05,04,50,6.90
2016,05,05,04,51,6.80
2016,05,05,04,52,6.80
2016,05,05,04,53,6.80
2016,05,05,04,54,6.80
2016,05,05,04,55,6.80
2016,05,05,04,56,6.80
2016,05,05,04,57,6.80
2016,05,05,04,58,6.80
2016,05,05,04,59,6.80
2016,05,05,05,00,6.80
2016,05,05,05,01,6.80
2016,05,05,05,02,6.80
2016,05,05,05,03,6.80
2016,05,05,05,04,6.80
2016,05,05,05,05,6.70
2016,05,05,05,06,6.70
2016,05,05,05,07,6.70
2016,05,05,05,08,6.70
2016,05,05,05,09,6.70
2016,05,05,05,10,6.70
2016,05,05,05,11,6.70
2016,05,05,05,12,6.70
2016,05,05,05,13,6.70
2016,05,05,05,14,6.60
2016,05,05,05,15,6.60
2016,05,05,05,16,6.60
2016,05,05,05,17,6.60
2016,05,05,05,18,6.60
2016,05,05,05,19,6.60
2016,05,05,05,20,6.60
2016,05,05,05,21,6.50
2016,05,05,05,22,6.50
2016,05,05,05,23,6.50
2016,05,05,05,24,6.40
2016,05,05,05,25,6.40
2016,05,05,05,26,6.40
2016,05,05,05,27,6.40
2016,05,05,05,28,6.40
2016,05,05,05,29,6.40
2016,05,05,05,30,6.30
2016,05,05,05,31,6.30
2016,05,05,05,32,6.30
2016,05,05,05,33,6.30
2016,05,05,05,34,6.30
2016,05,05,05,35,6.30
2016,05,05,05,36,6.30
2016,05,05,05,37,6.20
2016,05,05,05,38,6.20
2016,05,05,05,39,6.20
2016,05,05,05,40,6.20
2016,05,05,05,41,6.30
2016,05,05,05,42,6.30
2016,05,05,05,43,6.30
2016,05,05,05,44,6.30
2016,05,05,05,45,6.30
2016,05,05,05,46,6.30
2016,05,05,05,47,6.30
2016,05,05,05,48,6.30
2016,05,05,05,49,6.20
2016,05,05,05,50,6.20
2016,05,05,05,51,6.20
2016,05,05,05,52,6.20
2016,05,05,05,53,6.20
2016,05,05,05,54,6.20
2016,05,05,05,55,6.20
2016,05,05,05,56,6.20
2016,05,05,05,57,6.20
2016,05,05,05,58,6.20
2016,05,05,05,59,6.20
2016,05,05,06,00,6.20
2016,05,05,06,01,6.20
2016,05,05,06,02,6.20
2016,05,05,06,03,6.10
2016,05,05,06,04,6.10
2016,05,05,06,05,6.10
2016,05,05,06,06,6.10
2016,05,05,06,07,6.10
2016,05,05,06,08,6.10
2016,05,05,06,09,6.10
2016,05,05,06,10,6.10
2016,05,05,06,11,6.10
2016,05,05,06,12,6.10
2016,05,05,06,13,6.10
2016,05,05,06,14,6.10
2016,05,05,06,15,6.10
2016,05,05,06,16,6.10
2016,05,05,06,17,6.10
2016,05,05,06,18,6.10
2016,05,05,06,19,6.10
2016,05,05,06,20,6.10
2016,05,05,06,21,6.10
2016,05,05,06,22,6.10
2016,05,05,06,23,6.10
2016,05,05,06,24,6.10
2016,05,05,06,25,6.10
2016,05,05,06,26,6.10
2016,05,05,06,27,6.10
2016,05,05,06,28,6.10
2016,05,05,06,29,6.00
2016,05,05,06,30,6.00
2016,05,05,06,31,6.00
2016,05,05,06,32,6.00
2016,05,05,06,33,6.00
2016,05,05,06,34,5.90
2016,05,05,06,35,5.90
2016,05,05,06,36,5.90
2016,05,05,06,37,5.90
2016,05,05,06,38,5.90
2016,05,05,06,39,5.90
2016,05,05,06,40,5.90
2016,05,05,06,41,5.90
2016,05,05,06,42,5.90
2016,05,05,06,43,5.90
2016,05,05,06,44,5.90
2016,05,05,06,45,6.00
2016,05,05,06,46,6.00
2016,05,05,06,47,6.00
2016,05,05,06,48,6.00
2016,05,05,06,49,6.00
2016,05,05,06,50,6.00
2016,05,05,06,51,6.00
2016,05,05,06,52,6.00
2016,05,05,06,53,6.10
2016,05,05,06,54,6.10
2016,05,05,06,55,6.10
2016,05,05,06,56,6.10
2016,05,05,06,57,6.10
2016,05,05,06,58,6.10
2016,05,05,06,59,6.10
2016,05,05,07,00,6.10
2016,05,05,07,01,6.20
2016,05,05,07,02,6.20
2016,05,05,07,03,6.20
2016,05,05,07,04,6.20
2016,05,05,07,05,6.20
2016,05,05,07,06,6.20
2016,05,05,07,07,6.30
2016,05,05,07,08,6.30
2016,05,05,07,09,6.30
2016,05,05,07,10,6.40
2016,05,05,07,11,6.40
2016,05,05,07,12,6.50
2016,05,05,07,13,6.50
2016,05,05,07,14,6.60
2016,05,05,07,15,6.70
2016,05,05,07,16,6.80
2016,05,05,07,17,6.80
2016,05,05,07,18,6.90
2016,05,05,07,19,6.90
2016,05,05,07,20,7.00
2016,05,05,07,21,7.10
2016,05,05,07,22,7.10
2016,05,05,07,23,7.20
2016,05,05,07,24,7.20
2016,05,05,07,25,7.30
2016,05,05,07,26,7.30
2016,05,05,07,27,7.30
2016,05,05,07,28,7.40
2016,05,05,07,29,7.40
2016,05,05,07,30,7.40
2016,05,05,07,31,7.50
2016,05,05,07,32,7.50
2016,05,05,07,33,7.60
2016,05,05,07,34,7.70
2016,05,05,07,35,7.70
2016,05,05,07,36,7.80
2016,05,05,07,37,7.80
2016,05,05,07,38,7.90
2016,05,05,07,39,7.90
2016,05,05,07,40,8.00
2016,05,05,07,41,8.10
2016,05,05,07,42,8.10
2016,05,05,07,43,8.20
2016,05,05,07,44,8.30
2016,05,05,07,45,8.40
2016,05,05,07,46,8.50
2016,05,05,07,47,8.60
2016,05,05,07,48,8.70
2016,05,05,07,49,8.80
2016,05,05,07,50,8.90
2016,05,05,07,51,9.00
2016,05,05,07,52,9.10
2016,05,05,07,53,9.20
2016,05,05,07,54,9.30
2016,05,05,07,55,9.40
2016,05,05,07,56,9.40
2016,05,05,07,57,9.50
2016,05,05,07,58,9.60
2016,05,05,07,59,9.60
2016,05,05,08,00,9.70
2016,05,05,08,01,9.70
2016,05,05,08,02,9.70
2016,05,05,08,03,9.70
2016,05,05,08,04,9.70
2016,05,05,08,05,9.70
2016,05,05,08,06,9.70
2016,05,05,08,07,9.80
2016,05,05,08,08,9.80
2016,05,05,08,09,9.80
2016,05,05,08,10,9.80
2016,05,05,08,11,9.80
2016,05,05,08,12,9.80
2016,05,05,08,13,9.80
2016,05,05,08,14,9.80
2016,05,05,08,15,9.80
2016,05,05,08,16,9.90
2016,05,05,08,17,9.90
2016,05,05,08,18,10.00
2016,05,05,08,19,10.10
2016,05,05,08,20,10.20
2016,05,05,08,21,10.30
2016,05,05,08,22,10.40
2016,05,05,08,23,10.50
2016,05,05,08,24,10.70
2016,05,05,08,25,10.80
2016,05,05,08,26,10.90
2016,05,05,08,27,11.00
2016,05,05,08,28,11.10
2016,05,05,08,29,11.10
2016,05,05,08,30,11.20
2016,05,05,08,31,11.30
2016,05,05,08,32,11.30
2016,05,05,08,33,11.40
2016,05,05,08,34,11.50
2016,05,05,08,35,11.50
2016,05,05,08,36,11.60
2016,05,05,08,37,11.70
2016,05,05,08,38,11.70
2016,05,05,08,39,11.80
2016,05,05,08,40,11.90
2016,05,05,08,41,11.90
2016,05,05,08,42,12.00
2016,05,05,08,43,12.00
2016,05,05,08,44,12.00
2016,05,05,08,45,12.10
2016,05,05,08,46,12.10
2016,05,05,08,47,12.10
2016,05,05,08,48,12.10
2016,05,05,08,49,12.10
2016,05,05,08,50,12.10
2016,05,05,08,51,12.10
2016,05,05,08,52,12.10
2016,05,05,08,53,12.20
2016,05,05,08,54,12.20
2016,05,05,08,55,12.20
2016,05,05,08,56,12.30
2016,05,05,08,57,12.30
2016,05,05,08,58,12.30
2016,05,05,08,59,12.40
2016,05,05,09,00,12.40
2016,05,05,09,01,12.50
2016,05,05,09,02,12.60
2016,05,05,09,03,12.60
2016,05,05,09,04,12.60
2016,05,05,09,05,12.70
2016,05,05,09,06,12.70
2016,05,05,09,07,12.80
2016,05,05,09,08,13.00
2016,05,05,09,09,13.10
2016,05,05,09,10,13.20
2016,05,05,09,11,13.30
2016,05,05,09,12,13.40
2016,05,05,09,13,13.50
2016,05,05,09,14,13.60
2016,05,05,09,15,13.70
2016,05,05,09,16,13.80
2016,05,05,09,17,14.00
2016,05,05,09,18,14.10
2016,05,05,09,19,14.10
2016,05,05,09,20,14.20
2016,05,05,09,21,14.20
2016,05,05,09,22,14.30
2016,05,05,09,23,14.30
2016,05,05,09,24,14.40
2016,05,05,09,25,14.50
2016,05,05,09,26,14.50
2016,05,05,09,27,14.60
2016,05,05,09,28,14.70
2016,05,05,09,29,14.80
2016,05,05,09,30,14.90
2016,05,05,09,31,15.00
2016,05,05,09,32,15.10
2016,05,05,09,33,15.10
2016,05,05,09,34,15.10
2016,05,05,09,35,15.20
2016,05,05,09,36,15.20
2016,05,05,09,37,15.20
2016,05,05,09,38,15.20
2016,05,05,09,39,15.20
2016,05,05,09,40,15.20
2016,05,05,09,41,15.20
2016,05,05,09,42,15.20
2016,05,05,09,43,15.20
2016,05,05,09,44,15.30
2016,05,05,09,45,15.30
2016,05,05,09,46,15.30
2016,05,05,09,47,15.30
2016,05,05,09,48,15.30
2016,05,05,09,49,15.30
2016,05,05,09,50,15.30
2016,05,05,09,51,15.30
2016,05,05,09,52,15.30
2016,05,05,09,53,15.40
2016,05,05,09,54,15.40
2016,05,05,09,55,15.50
2016,05,05,09,56,15.60
2016,05,05,09,57,15.60
2016,05,05,09,58,15.70
2016,05,05,09,59,15.70
2016,05,05,10,00,15.70
2016,05,05,10,01,15.60
2016,05,05,10,02,15.60
2016,05,05,10,03,15.50
2016,05,05,10,04,15.40
2016,05,05,10,05,15.30
2016,05,05,10,06,15.30
2016,05,05,10,07,15.30
2016,05,05,10,08,15.30
2016,05,05,10,09,15.30
2016,05,05,10,10,15.30
2016,05,05,10,11,15.30
2016,05,05,10,12,15.30
2016,05,05,10,13,15.20
2016,05,05,10,14,15.20
2016,05,05,10,15,15.20
2016,05,05,10,16,15.20
2016,05,05,10,17,15.30
2016,05,05,10,18,15.30
2016,05,05,10,19,15.40
2016,05,05,10,20,15.40
2016,05,05,10,21,15.50
2016,05,05,10,22,15.50
2016,05,05,10,23,15.60
2016,05,05,10,24,15.60
2016,05,05,10,25,15.60
2016,05,05,10,26,15.60
2016,05,05,10,27,15.60
2016,05,05,10,28,15.60
2016,05,05,10,29,15.60
2016,05,05,10,30,15.60
2016,05,05,10,31,15.60
2016,05,05,10,32,15.60
2016,05,05,10,33,15.60
2016,05,05,10,34,15.60
2016,05,05,10,35,15.60
2016,05,05,10,36,15.70
2016,05,05,10,37,15.70
2016,05,05,10,38,15.70
2016,05,05,10,39,15.80
2016,05,05,10,40,15.80
2016,05,05,10,41,15.90
2016,05,05,10,42,16.10
2016,05,05,10,43,16.20
2016,05,05,10,44,16.40
2016,05,05,10,45,16.50
2016,05,05,10,46,16.60
2016,05,05,10,47,16.60
2016,05,05,10,48,16.60
2016,05,05,10,49,16.60
2016,05,05,10,50,16.60
2016,05,05,10,51,16.60
2016,05,05,10,52,16.70
2016,05,05,10,53,16.70
2016,05,05,10,54,16.80
2016,05,05,10,55,16.80
2016,05,05,10,56,16.70
2016,05,05,10,57,16.70
2016,05,05,10,58,16.60
2016,05,05,10,59,16.50
2016,05,05,11,00,16.40
2016,05,05,11,01,16.40
2016,05,05,11,02,16.50
2016,05,05,11,03,16.60
2016,05,05,11,04,16.60
2016,05,05,11,05,16.60
2016,05,05,11,06,16.60
2016,05,05,11,07,16.70
2016,05,05,11,08,16.70
2016,05,05,11,09,16.80
2016,05,05,11,10,16.80
2016,05,05,11,11,16.70
2016,05,05,11,12,16.80
2016,05,05,11,13,16.80
2016,05,05,11,14,16.80
2016,05,05,11,15,16.80
2016,05,05,11,16,16.90
2016,05,05,11,17,16.90
2016,05,05,11,18,17.00
2016,05,05,11,19,17.10
2016,05,05,11,20,17.10
2016,05,05,11,21,17.20
2016,05,05,11,22,17.30
2016,05,05,11,23,17.30
2016,05,05,11,24,17.30
2016,05,05,11,25,17.30
2016,05,05,11,26,17.30
2016,05,05,11,27,17.30
2016,05,05,11,28,17.40
2016,05,05,11,29,17.40
2016,05,05,11,30,17.40
2016,05,05,11,31,17.40
2016,05,05,11,32,17.50
2016,05,05,11,33,17.50
2016,05,05,11,34,17.40
2016,05,05,11,35,17.30
2016,05,05,11,36,17.20
2016,05,05,11,37,17.10
2016,05,05,11,38,17.00
2016,05,05,11,39,16.90
2016,05,05,11,40,16.70
2016,05,05,11,41,16.50
2016,05,05,11,42,16.30
2016,05,05,11,43,16.20
2016,05,05,11,44,16.10
2016,05,05,11,45,16.00
2016,05,05,11,46,16.00
2016,05,05,11,47,15.90
2016,05,05,11,48,15.80
2016,05,05,11,49,15.80
2016,05,05,11,50,15.80
2016,05,05,11,51,15.80
2016,05,05,11,52,15.80
2016,05,05,11,53,15.80
2016,05,05,11,54,15.80
2016,05,05,11,55,15.80
2016,05,05,11,56,15.70
2016,05,05,11,57,15.60
2016,05,05,11,58,15.50
2016,05,05,11,59,15.40
2016,05,05,12,00,15.40
2016,05,05,12,01,15.30
2016,05,05,12,02,15.40
2016,05,05,12,03,15.40
2016,05,05,12,04,15.30
2016,05,05,12,05,15.30
2016,05,05,12,06,15.20
2016,05,05,12,07,15.20
2016,05,05,12,08,15.20
2016,05,05,12,09,15.30
2016,05,05,12,10,15.40
2016,05,05,12,11,15.40
2016,05,05,12,12,15.40
2016,05,05,12,13,15.40
2016,05,05,12,14,15.30
2016,05,05,12,15,15.30
2016,05,05,12,16,15.20
2016,05,05,12,17,15.20
2016,05,05,12,18,15.20
2016,05,05,12,19,15.20
2016,05,05,12,20,15.30
2016,05,05,12,21,15.30
2016,05,05,12,22,15.30
2016,05,05,12,23,15.30
2016,05,05,12,24,15.30
2016,05,05,12,25,15.30
2016,05,05,12,26,15.30
2016,05,05,12,27,15.30
2016,05,05,12,28,15.30
2016,05,05,12,29,15.30
2016,05,05,12,30,15.30
2016,05,05,12,31,15.30
2016,05,05,12,32,15.30
2016,05,05,12,33,15.40
2016,05,05,12,34,15.50
2016,05,05,12,35,15.50
2016,05,05,12,36,15.50
2016,05,05,12,37,15.40
2016,05,05,12,38,15.30
2016,05,05,12,39,15.40
2016,05,05,12,40,15.50
2016,05,05,12,41,15.50
2016,05,05,12,42,15.50
2016,05,05,12,43,15.60
2016,05,05,12,44,15.60
2016,05,05,12,45,15.70
2016,05,05,12,46,15.70
2016,05,05,12,47,15.80
2016,05,05,12,48,15.90
2016,05,05,12,49,16.00
2016,05,05,12,50,16.10
2016,05,05,12,51,16.00
2016,05,05,12,52,15.80
2016,05,05,12,53,15.70
2016,05,05,12,54,15.60
2016,05,05,12,55,15.50
2016,05,05,12,56,15.50
2016,05,05,12,57,15.50
2016,05,05,12,58,15.50
2016,05,05,12,59,15.40
2016,05,05,13,00,15.40
2016,05,05,13,01,15.50
2016,05,05,13,02,15.50
2016,05,05,13,03,15.50
2016,05,05,13,04,15.60
2016,05,05,13,05,15.70
2016,05,05,13,06,15.60
2016,05,05,13,07,15.60
2016,05,05,13,08,15.50
2016,05,05,13,09,15.40
2016,05,05,13,10,15.50
2016,05,05,13,11,15.50
2016,05,05,13,12,15.60
2016,05,05,13,13,15.70
2016,05,05,13,14,15.70
2016,05,05,13,15,15.70
2016,05,05,13,16,15.70
2016,05,05,13,17,15.80
2016,05,05,13,18,15.90
2016,05,05,13,19,16.00
2016,05,05,13,20,16.00
2016,05,05,13,21,16.10
2016,05,05,13,22,16.10
2016,05,05,13,23,16.10
2016,05,05,13,24,16.00
2016,05,05,13,25,16.00
2016,05,05,13,26,16.10
2016,05,05,13,27,16.00
2016,05,05,13,28,15.90
2016,05,05,13,29,15.90
2016,05,05,13,30,15.90
2016,05,05,13,31,16.00
2016,05,05,13,32,16.10
2016,05,05,13,33,16.20
2016,05,05,13,34,16.30
2016,05,05,13,35,16.30
2016,05,05,13,36,16.40
2016,05,05,13,37,16.50
2016,05,05,13,38,16.50
2016,05,05,13,39,16.60
2016,05,05,13,40,16.60
2016,05,05,13,41,16.70
2016,05,05,13,42,16.80
2016,05,05,13,43,16.80
2016,05,05,13,44,16.90
2016,05,05,13,45,16.90
2016,05,05,13,46,16.90
2016,05,05,13,47,16.90
2016,05,05,13,48,17.00
2016,05,05,13,49,17.00
2016,05,05,13,50,17.10
2016,05,05,13,51,17.20
2016,05,05,13,52,17.20
2016,05,05,13,53,17.30
2016,05,05,13,54,17.40
2016,05,05,13,55,17.60
2016,05,05,13,56,17.70
2016,05,05,13,57,17.90
2016,05,05,13,58,18.00
2016,05,05,13,59,18.20
2016,05,05,14,00,18.30
2016,05,05,14,01,18.40
2016,05,05,14,02,18.40
2016,05,05,14,03,18.50
2016,05,05,14,04,18.50
2016,05,05,14,05,18.60
2016,05,05,14,06,18.60
2016,05,05,14,07,18.70
2016,05,05,14,08,18.70
2016,05,05,14,09,18.70
2016,05,05,14,10,18.70
2016,05,05,14,11,18.80
2016,05,05,14,12,18.80
2016,05,05,14,13,18.90
2016,05,05,14,14,18.90
2016,05,05,14,15,18.90
2016,05,05,14,16,19.00
2016,05,05,14,17,19.10
2016,05,05,14,18,19.10
2016,05,05,14,19,19.10
2016,05,05,14,20,19.20
2016,05,05,14,21,19.20
2016,05,05,14,22,19.20
2016,05,05,14,23,19.20
2016,05,05,14,24,19.20
2016,05,05,14,25,19.20
2016,05,05,14,26,19.10
2016,05,05,14,27,19.10
2016,05,05,14,28,19.10
2016,05,05,14,29,19.10
2016,05,05,14,30,19.10
2016,05,05,14,31,19.10
2016,05,05,14,32,19.20
2016,05,05,14,33,19.30
2016,05,05,14,34,19.40
2016,05,05,14,35,19.50
2016,05,05,14,36,19.60
2016,05,05,14,37,19.70
2016,05,05,14,38,19.90
2016,05,05,14,39,19.90
2016,05,05,14,40,19.90
2016,05,05,14,41,20.00
2016,05,05,14,42,19.90
2016,05,05,14,43,19.90
2016,05,05,14,44,19.90
2016,05,05,14,45,19.80
2016,05,05,14,46,19.80
2016,05,05,14,47,19.70
2016,05,05,14,48,19.60
2016,05,05,14,49,19.50
2016,05,05,14,50,19.50
2016,05,05,14,51,19.40
2016,05,05,14,52,19.40
2016,05,05,14,53,19.40
2016,05,05,14,54,19.50
2016,05,05,14,55,19.50
2016,05,05,14,56,19.60
2016,05,05,14,57,19.70
2016,05,05,14,58,19.80
2016,05,05,14,59,20.00
2016,05,05,15,00,20.20
2016,05,05,15,01,20.30
2016,05,05,15,02,20.40
2016,05,05,15,03,20.40
2016,05,05,15,04,20.50
2016,05,05,15,05,20.60
2016,05,05,15,06,20.60
2016,05,05,15,07,20.50
2016,05,05,15,08,20.30
2016,05,05,15,09,20.10
2016,05,05,15,10,19.80
2016,05,05,15,11,19.60
2016,05,05,15,12,19.50
2016,05,05,15,13,19.40
2016,05,05,15,14,19.30
2016,05,05,15,15,19.30
2016,05,05,15,16,19.20
2016,05,05,15,17,19.20
2016,05,05,15,18,19.20
2016,05,05,15,19,19.20
2016,05,05,15,20,19.30
2016,05,05,15,21,19.20
2016,05,05,15,22,19.10
2016,05,05,15,23,18.90
2016,05,05,15,24,18.70
2016,05,05,15,25,18.60
2016,05,05,15,26,18.50
2016,05,05,15,27,18.40
2016,05,05,15,28,18.40
2016,05,05,15,29,18.30
2016,05,05,15,30,18.20
2016,05,05,15,31,18.20
2016,05,05,15,32,18.10
2016,05,05,15,33,18.00
2016,05,05,15,34,17.90
2016,05,05,15,35,17.90
2016,05,05,15,36,17.80
2016,05,05,15,37,17.80
2016,05,05,15,38,17.80
2016,05,05,15,39,17.80
2016,05,05,15,40,17.80
2016,05,05,15,41,17.70
2016,05,05,15,42,17.60
2016,05,05,15,43,17.50
2016,05,05,15,44,17.40
2016,05,05,15,45,17.40
2016,05,05,15,46,17.40
2016,05,05,15,47,17.40
2016,05,05,15,48,17.40
2016,05,05,15,49,17.50
2016,05,05,15,50,17.50
2016,05,05,15,51,17.60
2016,05,05,15,52,17.70
2016,05,05,15,53,17.70
2016,05,05,15,54,17.70
2016,05,05,15,55,17.60
2016,05,05,15,56,17.60
2016,05,05,15,57,17.50
2016,05,05,15,58,17.50
2016,05,05,15,59,17.40
2016,05,05,16,00,17.40
2016,05,05,16,01,17.40
2016,05,05,16,02,17.40
2016,05,05,16,03,17.40
2016,05,05,16,04,17.50
2016,05,05,16,05,17.50
2016,05,05,16,06,17.60
2016,05,05,16,07,17.70
2016,05,05,16,08,17.70
2016,05,05,16,09,17.80
2016,05,05,16,10,17.80
2016,05,05,16,11,17.90
2016,05,05,16,12,17.90
2016,05,05,16,13,18.00
2016,05,05,16,14,18.00
2016,05,05,16,15,17.90
2016,05,05,16,16,17.70
2016,05,05,16,17,17.60
2016,05,05,16,18,17.50
2016,05,05,16,19,17.50
2016,05,05,16,20,17.50
2016,05,05,16,21,17.50
2016,05,05,16,22,17.50
2016,05,05,16,23,17.50
2016,05,05,16,24,17.50
2016,05,05,16,25,17.50
2016,05,05,16,26,17.50
2016,05,05,16,27,17.50
2016,05,05,16,28,17.30
2016,05,05,16,29,17.20
2016,05,05,16,30,17.00
2016,05,05,16,31,16.90
2016,05,05,16,32,16.80
2016,05,05,16,33,16.80
2016,05,05,16,34,16.80
2016,05,05,16,35,16.80
2016,05,05,16,36,16.80
2016,05,05,16,37,16.80
2016,05,05,16,38,16.80
2016,05,05,16,39,16.80
2016,05,05,16,40,16.80
2016,05,05,16,41,16.70
2016,05,05,16,42,16.70
2016,05,05,16,43,16.70
2016,05,05,16,44,16.70
2016,05,05,16,45,16.60
2016,05,05,16,46,16.60
2016,05,05,16,47,16.60
2016,05,05,16,48,16.50
2016,05,05,16,49,16.50
2016,05,05,16,50,16.50
2016,05,05,16,51,16.40
2016,05,05,16,52,16.40
2016,05,05,16,53,16.40
2016,05,05,16,54,16.30
2016,05,05,16,55,16.30
2016,05,05,16,56,16.30
2016,05,05,16,57,16.30
2016,05,05,16,58,16.30
2016,05,05,16,59,16.30
2016,05,05,17,00,16.30
2016,05,05,17,01,16.40
2016,05,05,17,02,16.50
2016,05,05,17,03,16.50
2016,05,05,17,04,16.50
2016,05,05,17,05,16.60
2016,05,05,17,06,16.50
2016,05,05,17,07,16.50
2016,05,05,17,08,16.60
2016,05,05,17,09,16.60
2016,05,05,17,10,16.70
2016,05,05,17,11,16.70
2016,05,05,17,12,16.70
2016,05,05,17,13,16.60
2016,05,05,17,14,16.60
2016,05,05,17,15,16.60
2016,05,05,17,16,16.60
2016,05,05,17,17,16.60
2016,05,05,17,18,16.70
2016,05,05,17,19,16.80
2016,05,05,17,20,16.80
2016,05,05,17,21,16.90
2016,05,05,17,22,16.90
2016,05,05,17,23,17.00
2016,05,05,17,24,17.10
2016,05,05,17,25,17.10
2016,05,05,17,26,17.10
2016,05,05,17,27,17.10
2016,05,05,17,28,17.10
2016,05,05,17,29,17.00
2016,05,05,17,30,17.00
2016,05,05,17,31,16.90
2016,05,05,17,32,16.90
2016,05,05,17,33,16.90
2016,05,05,17,34,16.90
2016,05,05,17,35,16.90
2016,05,05,17,36,16.80